| time (UTC) | temp F | wind direction | speed knots | gust knots | rain 1hr in | rain 24hr in | rain mn in | humidity % | barometer mb |
| 20260507110010 | 55 | 250 | 0.0 | 0.0 | 0.00 | 0.00 | 0.00 | 90 | 1013.0 |
| 20260507104506 | 55 | 250 | 0.0 | 0.0 | 0.00 | 0.00 | 0.00 | 90 | 1013.1 |
| 20260507103002 | 55 | 250 | 0.0 | 0.0 | 0.00 | 0.00 | 0.00 | 90 | 1013.2 |
| 20260507101501 | 56 | 250 | 0.0 | 0.0 | 0.00 | 0.00 | 0.00 | 89 | 1013.2 |
| 20260507100001 | 56 | 250 | 0.0 | 0.0 | 0.00 | 0.00 | 0.00 | 90 | 1013.2 |
| 20260507094601 | 56 | 250 | 0.0 | 0.0 | 0.00 | 0.00 | 0.00 | 89 | 1013.2 |
| 20260507093057 | 56 | 250 | 0.0 | 0.0 | 0.00 | 0.00 | 0.00 | 89 | 1013.5 |
| 20260507091556 | 56 | 250 | 0.0 | 0.0 | 0.00 | 0.00 | 0.00 | 89 | 1013.6 |
| 20260507090056 | 57 | 250 | 0.0 | 0.0 | 0.00 | 0.00 | 0.00 | 89 | 1013.7 |
| 20260507084601 | 57 | 250 | 0.0 | 0.0 | 0.00 | 0.00 | 0.00 | 88 | 1013.9 |
| 20260507083050 | 57 | 250 | 0.0 | 0.0 | 0.00 | 0.00 | 0.00 | 88 | 1014.2 |
| 20260507081550 | 57 | 250 | 0.0 | 0.0 | 0.00 | 0.00 | 0.00 | 88 | 1014.2 |
| 20260507080047 | 58 | 250 | 0.0 | 0.0 | 0.00 | 0.00 | 0.00 | 88 | 1014.2 |
| 20260507074549 | 58 | 250 | 0.0 | 0.0 | 0.00 | 0.00 | 0.00 | 88 | 1014.2 |
| 20260507073054 | 58 | 250 | 0.0 | 0.0 | 0.00 | 0.00 | 0.00 | 88 | 1014.1 |
| 20260507071541 | 58 | 250 | 0.0 | 0.0 | 0.00 | 0.00 | 0.00 | 87 | 1014.2 |
| 20260507070043 | 59 | 250 | 0.0 | 0.0 | 0.00 | 0.00 | 0.00 | 86 | 1014.3 |
| 20260507064546 | 59 | 250 | 0.0 | 0.0 | 0.00 | 0.00 | 0.00 | 86 | 1014.3 |
| 20260507063027 | 59 | 250 | 0.0 | 0.0 | 0.00 | 0.00 | 0.00 | 86 | 1014.3 |
| 20260507061509 | 59 | 250 | 0.0 | 0.0 | 0.00 | 0.00 | 0.00 | 85 | 1014.3 |
| 20260507060036 | 59 | 250 | 0.0 | 0.0 | 0.00 | 0.00 | 0.00 | 85 | 1014.3 |
| 20260507054536 | 60 | 250 | 0.0 | 0.0 | 0.00 | 0.00 | 0.00 | 84 | 1014.4 |
| 20260507053035 | 60 | 250 | 0.0 | 0.0 | 0.00 | 0.00 | 0.00 | 83 | 1014.4 |
| 20260507051528 | 61 | 250 | 0.0 | 0.0 | 0.00 | 0.00 | 0.00 | 83 | 1014.3 |
| 20260507050024 | 62 | 250 | 0.0 | 0.0 | 0.00 | 0.00 | 0.00 | 82 | 1014.3 |
| 20260507044522 | 63 | 250 | 0.0 | 0.0 | 0.00 | 0.00 | 0.00 | 80 | 1014.3 |
| 20260507043016 | 64 | 250 | 0.0 | 0.0 | 0.00 | 0.00 | 0.00 | 79 | 1014.2 |
| 20260507041515 | 65 | 250 | 0.0 | 0.0 | 0.00 | 0.00 | 0.00 | 79 | 1014.2 |
| 20260507040013 | 65 | 250 | 0.0 | 0.0 | 0.00 | 0.00 | 0.00 | 77 | 1014.0 |
| 20260507034512 | 65 | 250 | 0.0 | 0.0 | 0.00 | 0.00 | 0.00 | 77 | 1013.7 |
| 20260507033008 | 66 | 250 | 0.0 | 0.0 | 0.00 | 0.00 | 0.00 | 78 | 1013.7 |
| 20260507031506 | 66 | 250 | 0.0 | 0.0 | 0.00 | 0.00 | 0.00 | 78 | 1013.5 |
| 20260507030004 | 66 | 250 | 0.0 | 0.0 | 0.00 | 0.00 | 0.00 | 78 | 1013.3 |
| 20260507024502 | 67 | 250 | 0.0 | 0.0 | 0.00 | 0.00 | 0.00 | 76 | 1013.2 |
| 20260507023034 | 67 | 250 | 0.0 | 0.0 | 0.00 | 0.00 | 0.00 | 75 | 1013.2 |
| 20260507021534 | 68 | 250 | 0.0 | 0.0 | 0.00 | 0.00 | 0.00 | 73 | 1013.2 |
| 20260507020034 | 69 | 250 | 0.0 | 0.0 | 0.00 | 0.00 | 0.00 | 71 | 1013.0 |
| 20260507014533 | 71 | 250 | 0.0 | 0.0 | 0.00 | 0.00 | 0.00 | 69 | 1013.0 |
| 20260507013025 | 71 | 252 | 0.0 | 0.0 | 0.00 | 0.00 | 0.00 | 68 | 1013.1 |
| 20260507011526 | 71 | 252 | 0.0 | 0.0 | 0.00 | 0.00 | 0.00 | 67 | 1013.0 |
| 20260507010031 | 71 | 263 | 0.0 | 0.0 | 0.00 | 0.00 | 0.00 | 65 | 1012.9 |
| 20260507004522 | 72 | 279 | 0.9 | 0.0 | 0.00 | 0.00 | 0.00 | 64 | 1012.8 |
| 20260507003021 | 72 | 248 | 0.0 | 0.0 | 0.00 | 0.00 | 0.00 | 64 | 1012.8 |
| 20260507001523 | 72 | 268 | 0.0 | 0.0 | 0.00 | 0.00 | 0.00 | 65 | 1012.7 |
| 20260507000022 | 72 | 277 | 0.0 | 0.0 | 0.00 | 0.00 | 0.00 | 64 | 1012.7 |
| 20260506234535 | 72 | 275 | 0.9 | 0.0 | 0.00 | 0.00 | 0.00 | 65 | 1012.7 |
| 20260506233017 | 72 | 271 | 0.9 | 0.0 | 0.00 | 0.00 | 0.00 | 64 | 1012.7 |
| 20260506231517 | 72 | 268 | 0.9 | 0.0 | 0.00 | 0.00 | 0.00 | 63 | 1012.7 |
| 20260506230017 | 73 | 266 | 0.0 | 0.0 | 0.00 | 0.00 | 0.00 | 63 | 1012.7 |
| 20260506224600 | 72 | 256 | 0.9 | 0.0 | 0.00 | 0.00 | 0.00 | 63 | 1012.9 |
| 20260506223046 | 72 | 274 | 0.0 | 0.0 | 0.00 | 0.00 | 0.00 | 65 | 1013.1 |
| 20260506221512 | 72 | 266 | 0.9 | 0.0 | 0.00 | 0.00 | 0.00 | 65 | 1013.2 |
| 20260506220028 | 71 | 276 | 0.9 | 0.0 | 0.00 | 0.00 | 0.00 | 66 | 1013.3 |
| 20260506214510 | 71 | 261 | 0.9 | 0.0 | 0.00 | 0.00 | 0.00 | 66 | 1013.5 |
| 20260506213010 | 71 | 286 | 0.9 | 0.0 | 0.00 | 0.00 | 0.00 | 66 | 1013.6 |
| 20260506211517 | 72 | 261 | 0.9 | 0.0 | 0.00 | 0.00 | 0.00 | 66 | 1013.7 |
| 20260506210009 | 71 | 261 | 0.9 | 0.0 | 0.00 | 0.00 | 0.00 | 66 | 1013.7 |
| 20260506204506 | 71 | 285 | 0.9 | 0.0 | 0.00 | 0.00 | 0.00 | 66 | 1013.7 |
| 20260506203006 | 71 | 263 | 0.9 | 0.0 | 0.00 | 0.00 | 0.00 | 67 | 1013.8 |
| 20260506201505 | 70 | 219 | 1.7 | 0.0 | 0.00 | 0.00 | 0.00 | 67 | 1013.9 |
| 20260506200005 | 70 | 271 | 1.7 | 0.0 | 0.00 | 0.00 | 0.00 | 67 | 1014.2 |
| 20260506194538 | 70 | 261 | 1.7 | 0.0 | 0.00 | 0.00 | 0.00 | 67 | 1014.2 |
| 20260506193033 | 70 | 270 | 0.9 | 0.0 | 0.00 | 0.00 | 0.00 | 67 | 1014.3 |
| 20260506191508 | 70 | 271 | 1.7 | 0.0 | 0.00 | 0.00 | 0.00 | 67 | 1014.3 |
| 20260506190000 | 70 | 207 | 0.9 | 0.0 | 0.00 | 0.00 | 0.00 | 68 | 1014.4 |
| 20260506184556 | 70 | 266 | 0.9 | 0.0 | 0.00 | 0.00 | 0.00 | 67 | 1014.7 |
| 20260506183100 | 70 | 261 | 0.9 | 0.0 | 0.00 | 0.00 | 0.00 | 67 | 1014.7 |
| 20260506181602 | 70 | 259 | 0.9 | 0.0 | 0.00 | 0.00 | 0.00 | 66 | 1014.8 |
| 20260506180050 | 71 | 261 | 0.0 | 0.0 | 0.00 | 0.00 | 0.00 | 65 | 1014.8 |
| 20260506174544 | 71 | 260 | 0.0 | 0.0 | 0.00 | 0.00 | 0.00 | 62 | 1015.0 |
| 20260506173059 | 72 | 260 | 0.0 | 0.0 | 0.00 | 0.00 | 0.00 | 62 | 1015.2 |
| 20260506171544 | 70 | 260 | 0.0 | 0.0 | 0.00 | 0.00 | 0.00 | 61 | 1015.1 |
| 20260506170035 | 71 | 260 | 0.0 | 0.0 | 0.00 | 0.00 | 0.00 | 63 | 1015.2 |
| 20260506164528 | 69 | 260 | 0.0 | 0.0 | 0.00 | 0.00 | 0.00 | 65 | 1015.1 |
| 20260506163025 | 68 | 260 | 0.0 | 0.0 | 0.00 | 0.00 | 0.00 | 67 | 1015.1 |
| 20260506161521 | 66 | 260 | 0.0 | 0.0 | 0.00 | 0.00 | 0.00 | 69 | 1015.2 |
| 20260506160033 | 66 | 260 | 0.0 | 0.0 | 0.00 | 0.00 | 0.00 | 69 | 1015.2 |
| 20260506154516 | 65 | 260 | 0.0 | 0.0 | 0.00 | 0.00 | 0.00 | 71 | 1015.3 |
| 20260506153007 | 63 | 260 | 0.0 | 0.0 | 0.00 | 0.00 | 0.00 | 73 | 1015.3 |
| 20260506151505 | 62 | 260 | 0.0 | 0.0 | 0.00 | 0.00 | 0.00 | 77 | 1015.3 |
| 20260506150002 | 60 | 260 | 0.0 | 0.0 | 0.00 | 0.00 | 0.00 | 79 | 1015.3 |
| 20260506144555 | 58 | 260 | 0.0 | 0.0 | 0.00 | 0.00 | 0.00 | 82 | 1015.3 |
| 20260506143054 | 57 | 260 | 0.0 | 0.0 | 0.00 | 0.00 | 0.00 | 83 | 1015.3 |
| 20260506141552 | 56 | 260 | 0.0 | 0.0 | 0.00 | 0.00 | 0.00 | 85 | 1015.3 |
| 20260506140050 | 56 | 260 | 0.0 | 0.0 | 0.00 | 0.00 | 0.00 | 86 | 1015.3 |
| 20260506134548 | 55 | 260 | 0.0 | 0.0 | 0.00 | 0.00 | 0.00 | 86 | 1015.0 |
| 20260506133045 | 55 | 260 | 0.0 | 0.0 | 0.00 | 0.00 | 0.00 | 86 | 1014.8 |
| 20260506131556 | 56 | 260 | 0.0 | 0.0 | 0.00 | 0.00 | 0.00 | 86 | 1014.8 |
| 20260506130048 | 56 | 260 | 0.0 | 0.0 | 0.00 | 0.00 | 0.00 | 86 | 1014.6 |
| 20260506124513 | 56 | 260 | 0.0 | 0.0 | 0.00 | 0.00 | 0.00 | 86 | 1014.5 |
| 20260506123011 | 56 | 260 | 0.0 | 0.0 | 0.00 | 0.00 | 0.00 | 87 | 1014.3 |
| 20260506121508 | 56 | 260 | 0.0 | 0.0 | 0.00 | 0.00 | 0.00 | 86 | 1014.3 |
| 20260506120014 | 56 | 260 | 0.0 | 0.0 | 0.00 | 0.00 | 0.00 | 86 | 1014.3 |
| 20260506114508 | 56 | 260 | 0.0 | 0.0 | 0.00 | 0.00 | 0.00 | 86 | 1014.5 |
| 20260506113007 | 56 | 260 | 0.0 | 0.0 | 0.00 | 0.00 | 0.00 | 87 | 1014.4 |
| 20260506111505 | 56 | 260 | 0.0 | 0.0 | 0.00 | 0.00 | 0.00 | 88 | 1014.3 |